Погода в Алтанцах

Россия / Республика Саха (Якутия)     61°28′08″N   131°29′49″E
темп.,
°C
ветер,
м/с
пор.,
м/с
влажн.,
%
обл.,
%
осадки,
мм/ч
давл.,
гПа
погр.,
м
1 марта, пн
пн100:00−26з3796100 0.1 1024512
03:00−27з3896100 0.1 1025527
06:00−28з3896100 0.1 1025452
09:00−27з3793100 0.1 1025628
12:00−25з3688100 0.1 1026940
15:00−25зсз4687100 0.1 10251011
18:00−26зсз2697100 0.1 1026291
21:00−27з2798100 0.1 1026367
2 марта, вт
вт200:00−28з2698100 0.1 1026300
03:00−31з2499100 0.1 102697
06:00−32зюз2299100 0.0 102771
09:00−32з2498100 0.1 1027163
12:00−28з2493100 0.0 1026477
15:00−27зсз2491100 0.0 1025570
18:00−29зсз1297100 0.0 102525
21:00−30з1198100 0.1 102519
3 марта, ср
ср300:00−30з1198100 0.1 102419
03:00−31зюз1198100 0.1 102420
06:00−31з1198100 0.1 102319
09:00−30зсз129798 0.1 1022139
12:00−27зсз1289100 0.1 1021455
15:00−27сз2391100 0.1 1019572
18:00−29сз2298100 0.1 101929
21:00−31з2399100 0.1 101995
4 марта, чт
чт400:00−30з2698100 0.1 1018323
03:00−31з2697100 0.1 1018409
06:00−32з3796100 0.1 1017504
09:00−32зсз3794100 0.1 1018616
12:00−30зсз4689100 0.1 1018842
15:00−29зсз4686100 0.1 1018977
18:00−32з2695100 0.1 1020148
21:00−33з3899100 0.1 1021198
5 марта, пт
пт500:00−35з379999 0.0 1022149
03:00−37з389793 0.0 1023229
06:00−36з31095100 0.0 1023377
09:00−35зсз4994100 0.0 1024457
12:00−32зсз4892100 0.0 1024557
15:00−29зсз4891100 0.0 1024676
18:00−30зсз41193100 0.0 1024643
21:00−31зсз41194100 0.0 1025565